Regional Weather Roundup
Issued by NWS Cleveland, OH

Home | Current Version | Previous Version | Text Only | Print | Product List | Glossary Off
Versions: 1 2 3 4 5 6 7 8 9 10 11 12 13 14 15 16 17 18 19 20 21 22 23 24 25 26 27 28 29 30 31 32 33 34 35 36 37 38 39 40 41 42 43 44 45 46 47 48 49 50

000
ASUS41 KCLE 290810
RWRCLE
OHIO REGIONAL WEATHER ROUNDUP
NATIONAL WEATHER SERVICE WILMINGTON, OH
400 AM EDT MON AUG 29 2016

NOTE: "FAIR" INDICATES FEW OR NO CLOUDS BELOW 12,000 FEET WITH NO
SIGNIFICANT WEATHER AND/OR OBSTRUCTIONS TO VISIBILITY.

OHZ001>008-015>018-024>027-034-035-043-044-290900-
   NORTHWEST OHIO

CITY           SKY/WX    TMP DP  RH WIND       PRES   REMARKS
DEFIANCE       FAIR      67  64  90 CALM      30.21F
FINDLAY        FAIR      72  69  90 N5        30.20F FOG
TOLEDO EXPRESS FAIR      70  70 100 N3        30.21S
TOLEDO EXEC    CLOUDY    74  74 100 N5        30.21F
LIMA           FAIR      68  67  96 NE3       30.21F
$$

OHZ009>014-019>023-028>033-038-089-290900-
   NORTHEAST OHIO

CITY           SKY/WX    TMP DP  RH WIND       PRES   REMARKS
CLE-HOPKINS    MOCLDY    72  67  84 SW5       30.23S
CLE-LAKEFRONT  FAIR      77  71  82 NE13      30.20S
CUY CO. ARPT   NOT AVBL
LORAIN-ELYRIA  CLOUDY    68  67  96 CALM      30.22S
ASHTABULA      MOCLDY    71  71 100 CALM      30.23S
AKRON-CANTON   FAIR      67  64  90 N5        30.22S
WOOSTER        FAIR      65  64  97 NW3       30.23S FOG
MANSFIELD      FAIR      69  67  93 CALM      30.23S
YOUNGSTOWN     MOCLDY    67  66  97 CALM      30.22S FOG
$$

OHZ042-051>053-060>062-070>072-077>081-290900-
  SOUTHWEST OHIO

CITY           SKY/WX    TMP DP  RH WIND       PRES   REMARKS
CINC-COVINGTON FAIR      71  70  96 NE3       30.19S
CINC-LUNKEN    FAIR      69  69 100 CALM      30.19S
HAMILTON       FAIR      66  65  96 CALM      30.20R FOG
DAYTON         FAIR      67  66  97 CALM      30.21S
WRIGHT-PAT AFB PTCLDY    68  68  99 N1        30.18F
DAYTON GENERAL FAIR      69  66  90 NE6       30.19S
WILMINGTON     FAIR      68  66  93 CALM      30.19F
$$

OHZ036-037-039>041-045>050-054>059-063>069-073>076-082>088-290900-
  CENTRAL AND SOUTHEAST OHIO

CITY           SKY/WX    TMP DP  RH WIND       PRES   REMARKS
COLUMBUS       MOCLDY    71  69  93 N7        30.18S
OSU AIRPORT    FAIR      74  71  91 N6        30.19S
BOLTON FIELD   FAIR      73  71  91 NE3       30.19S
RICKENBACK AFB FAIR      73  70  92 N5        30.17S
NEWARK         FAIR      71  68  90 NE6       30.19S
MARION         FAIR      69  67  93 CALM      30.22S FOG
LANCASTER      FAIR      71  69  93 CALM      30.18S
ZANESVILLE     FAIR      68  66  93 N5        30.19S
NEW PHILLY     FAIR      68  64  87 CALM      30.21R
$$




USA.gov is the U.S. government's official web portal to all federal, state and local government web resources and services.